Location: *
(43.7000°S, 168.7000°W)
Time: 14:39:10
(UTC+00:00)

USA 186 - Pass Details

Date: 07 July 2020
Orbit: 262 x 438 km, 96.9° (Epoch: 02 August)

Event Time Altitude Azimuth Distance (km) Brightness Sun altitude
Rises 17:55:50 0° 54° (NE) 1,914 7.0 -9.2°
Reaches altitude 10° 17:58:31 10° 93° (E) 1,138 5.1 -8.7°
Maximum altitude 17:59:21 11° 113° (ESE) 1,085 4.5 -8.6°
Drops below altitude 10° 18:00:12 10° 133° (SE) 1,164 4.3 -8.5°
Sets 18:03:03 0° 170° (S) 2,041 5.1 -8.0°
